When you browse on this site, cookies collect data to enhance your experience and personalize the content and advertising you see.
Visit our Privacy Policy to learn more. By continuing to use the site, you agree to this use of cookies and data.
EN

Hourly Weather Goiatuba

Today, 19 September, Saturday

Time Temperature Precipitation Wind Pressure Humidity
00:00 +25°C° 0 mm 1 mps 695 mmHg 35%
01:00 +22°C° 0 mm 0 mps 695 mmHg 37%
02:00 +21°C° 0 mm 0 mps 695 mmHg 39%
03:00 +20°C° 0 mm 0 mps 694 mmHg 41%
04:00 +22°C° 0 mm 1 mps 695 mmHg 42%
05:00 +22°C° 0 mm 1 mps 695 mmHg 42%
06:00 +22°C° 0 mm 1 mps 695 mmHg 43%
07:00 +25°C° 0 mm 1 mps 696 mmHg 36%
08:00 +29°C° 0 mm 1 mps 697 mmHg 30%
09:00 +32°C° 0 mm 1 mps 698 mmHg 24%
10:00 +35°C° 0 mm 1 mps 698 mmHg 21%
11:00 +39°C° 0 mm 1 mps 698 mmHg 17%
12:00 +38°C° 0 mm 0 mps 698 mmHg 14%
13:00 +41°C° 0 mm 1 mps 697 mmHg 14%
14:00 +40°C° 0 mm 1 mps 696 mmHg 14%
15:00 +39°C° 0 mm 2 mps 695 mmHg 14%
16:00 +37°C° 0 mm 2 mps 695 mmHg 17%
17:00 +35°C° 0 mm 2 mps 694 mmHg 20%
18:00 +33°C° 0 mm 3 mps 694 mmHg 23%
19:00 +31°C° 0 mm 2 mps 695 mmHg 25%
20:00 +29°C° 0 mm 2 mps 695 mmHg 27%
21:00 +27°C° 0 mm 2 mps 695 mmHg 30%
22:00 +26°C° 0 mm 2 mps 695 mmHg 32%
23:00 +25°C° 0 mm 2 mps 695 mmHg 35%

Tomorrow, 20 September, Sunday

Time Temperature Precipitation Wind Pressure Humidity
00:00 +25°C° 0 mm 2 mps 695 mmHg 37%
01:00 +24°C° 0 mm 2 mps 695 mmHg 41%
02:00 +24°C° 0 mm 2 mps 695 mmHg 44%
03:00 +23°C° 0 mm 2 mps 695 mmHg 48%
04:00 +22°C° 0 mm 3 mps 695 mmHg 48%
05:00 +24°C° 0 mm 3 mps 696 mmHg 49%
06:00 +24°C° 0 mm 3 mps 696 mmHg 50%
07:00 +26°C° 0 mm 4 mps 697 mmHg 45%
08:00 +28°C° 0 mm 5 mps 697 mmHg 40%
09:00 +30°C° 0 mm 6 mps 698 mmHg 36%
10:00 +33°C° 0 mm 5 mps 698 mmHg 31%
11:00 +35°C° 0 mm 4 mps 698 mmHg 26%
12:00 +37°C° 0 mm 4 mps 697 mmHg 22%
13:00 +38°C° 0 mm 3 mps 696 mmHg 19%
14:00 +39°C° 0 mm 2 mps 696 mmHg 17%
15:00 +40°C° 0 mm 1 mps 695 mmHg 15%
16:00 +37°C° 0 mm 1 mps 695 mmHg 18%
17:00 +35°C° 0 mm 1 mps 694 mmHg 20%
18:00 +33°C° 0 mm 1 mps 694 mmHg 23%
19:00 +31°C° 0 mm 2 mps 695 mmHg 26%
20:00 +30°C° 0 mm 3 mps 695 mmHg 29%
21:00 +29°C° 0 mm 4 mps 695 mmHg 32%
22:00 +27°C° 0 mm 4 mps 695 mmHg 37%
23:00 +26°C° 0 mm 4 mps 695 mmHg 42%

Day after tomorrow, 21 September, Monday

Time Temperature Precipitation Wind Pressure Humidity
00:00 +25°C° 0 mm 3 mps 695 mmHg 47%
01:00 +25°C° 0 mm 3 mps 695 mmHg 47%
02:00 +24°C° 0 mm 3 mps 695 mmHg 48%
03:00 +24°C° 0 mm 3 mps 694 mmHg 49%
04:00 +24°C° 0 mm 3 mps 695 mmHg 49%
05:00 +24°C° 0 mm 3 mps 695 mmHg 50%
06:00 +23°C° 0 mm 4 mps 695 mmHg 51%
07:00 +26°C° 0 mm 4 mps 696 mmHg 47%
08:00 +28°C° 0 mm 5 mps 696 mmHg 43%
09:00 +29°C° 0 mm 6 mps 696 mmHg 39%
10:00 +33°C° 0 mm 5 mps 696 mmHg 33%
11:00 +35°C° 0 mm 4 mps 696 mmHg 27%
12:00 +37°C° 0 mm 3 mps 696 mmHg 21%
13:00 +38°C° 0 mm 2 mps 695 mmHg 19%
14:00 +39°C° 0 mm 2 mps 695 mmHg 17%
15:00 +40°C° 0 mm 1 mps 694 mmHg 16%
16:00 +37°C° 0 mm 1 mps 694 mmHg 18%
17:00 +36°C° 0 mm 2 mps 694 mmHg 20%
18:00 +34°C° 0 mm 2 mps 694 mmHg 23%
19:00 +31°C° 0.1 mm 3 mps 694 mmHg 30%
20:00 +29°C° 0.1 mm 5 mps 695 mmHg 37%
21:00 +27°C° 0.1 mm 6 mps 696 mmHg 45%
22:00 +26°C° 0 mm 7 mps 696 mmHg 50%
23:00 +24°C° 0 mm 8 mps 696 mmHg 54%

22 September, Tuesday

Time Temperature Precipitation Wind Pressure Humidity
00:00 +23°C° 0 mm 8 mps 697 mmHg 59%
01:00 +22°C° 0 mm 8 mps 696 mmHg 63%
02:00 +21°C° 0 mm 7 mps 696 mmHg 68%
03:00 +20°C° 0 mm 7 mps 696 mmHg 72%
04:00 +20°C° 0 mm 6 mps 696 mmHg 73%
05:00 +20°C° 0 mm 6 mps 697 mmHg 73%
06:00 +20°C° 0 mm 6 mps 697 mmHg 74%
07:00 +21°C° 0 mm 6 mps 697 mmHg 68%
08:00 +23°C° 0 mm 7 mps 698 mmHg 62%
09:00 +24°C° 0 mm 7 mps 698 mmHg 56%
10:00 +27°C° 0 mm 6 mps 698 mmHg 50%
11:00 +30°C° 0 mm 6 mps 698 mmHg 44%
12:00 +33°C° 0 mm 5 mps 698 mmHg 37%
13:00 +33°C° 0 mm 4 mps 697 mmHg 36%
14:00 +34°C° 0 mm 3 mps 697 mmHg 34%
15:00 +34°C° 0 mm 2 mps 696 mmHg 32%
16:00 +30°C° 0.5 mm 4 mps 697 mmHg 44%
17:00 +27°C° 0.5 mm 6 mps 697 mmHg 56%
18:00 +23°C° 0.5 mm 8 mps 697 mmHg 69%
19:00 +22°C° 1.8 mm 7 mps 697 mmHg 72%
20:00 +21°C° 1.8 mm 6 mps 698 mmHg 75%
21:00 +21°C° 1.8 mm 5 mps 698 mmHg 78%
22:00 +21°C° 0.3 mm 5 mps 698 mmHg 78%
23:00 +21°C° 0.3 mm 4 mps 698 mmHg 77%

23 September, Wednesday

Time Temperature Precipitation Wind Pressure Humidity
00:00 +21°C° 0.3 mm 4 mps 698 mmHg 76%
01:00 +21°C° 0.1 mm 4 mps 698 mmHg 77%
02:00 +21°C° 0.1 mm 3 mps 697 mmHg 79%
03:00 +20°C° 0.1 mm 3 mps 697 mmHg 80%
04:00 +20°C° 0 mm 2 mps 697 mmHg 82%
05:00 +20°C° 0 mm 2 mps 697 mmHg 85%
06:00 +20°C° 0 mm 1 mps 697 mmHg 87%
07:00 +21°C° 0 mm 2 mps 698 mmHg 78%
08:00 +24°C° 0 mm 3 mps 699 mmHg 70%
09:00 +25°C° 0 mm 3 mps 699 mmHg 61%
10:00 +28°C° 0 mm 3 mps 699 mmHg 54%
11:00 +30°C° 0 mm 3 mps 699 mmHg 46%
12:00 +33°C° 0 mm 3 mps 700 mmHg 39%
13:00 +33°C° 0 mm 3 mps 699 mmHg 37%
14:00 +34°C° 0 mm 3 mps 698 mmHg 35%
15:00 +34°C° 0 mm 2 mps 698 mmHg 34%
16:00 +32°C° 0 mm 2 mps 697 mmHg 37%
17:00 +31°C° 0 mm 2 mps 697 mmHg 40%
18:00 +30°C° 0 mm 2 mps 697 mmHg 43%
19:00 +29°C° 0.1 mm 2 mps 697 mmHg 47%
20:00 +27°C° 0.1 mm 2 mps 698 mmHg 51%
21:00 +26°C° 0.1 mm 2 mps 698 mmHg 55%
22:00 +25°C° 0 mm 2 mps 698 mmHg 58%
23:00 +25°C° 0 mm 3 mps 698 mmHg 62%

24 September, Thursday

Time Temperature Precipitation Wind Pressure Humidity
00:00 +24°C° 0 mm 3 mps 698 mmHg 66%
01:00 +22°C° 0 mm 3 mps 697 mmHg 67%
02:00 +22°C° 0 mm 3 mps 697 mmHg 69%
03:00 +22°C° 0 mm 3 mps 696 mmHg 70%
04:00 +21°C° 0 mm 3 mps 697 mmHg 72%
05:00 +21°C° 0 mm 4 mps 697 mmHg 74%
06:00 +21°C° 0 mm 4 mps 697 mmHg 76%
07:00 +23°C° 0 mm 4 mps 698 mmHg 70%
08:00 +25°C° 0 mm 5 mps 698 mmHg 63%
09:00 +27°C° 0 mm 6 mps 699 mmHg 56%
10:00 +29°C° 0 mm 5 mps 699 mmHg 48%
11:00 +33°C° 0 mm 4 mps 699 mmHg 40%
12:00 +35°C° 0 mm 4 mps 699 mmHg 32%
13:00 +36°C° 0 mm 3 mps 698 mmHg 29%
14:00 +37°C° 0 mm 3 mps 698 mmHg 25%
15:00 +37°C° 0 mm 2 mps 697 mmHg 22%
16:00 +36°C° 0 mm 2 mps 697 mmHg 23%
17:00 +35°C° 0 mm 2 mps 696 mmHg 25%
18:00 +32°C° 0 mm 2 mps 696 mmHg 27%
19:00 +31°C° 0 mm 3 mps 697 mmHg 32%
20:00 +30°C° 0 mm 4 mps 697 mmHg 37%
21:00 +29°C° 0 mm 4 mps 697 mmHg 42%
22:00 +28°C° 0 mm 4 mps 697 mmHg 44%
23:00 +28°C° 0 mm 4 mps 697 mmHg 46%
Show more